Location: Trebic
(49.2170°N, 15.8830°E)
Time: 05:30:36
(UTC+02:00)

Transit 2A Rocket - Pass Details

Date: 30 July 2019
Orbit: 590 x 913 km, 66.7° (Epoch: 24 August)

Event Time Altitude Azimuth Distance (km) Brightness Sun altitude
Rises 06:10:56 0° 304° (NW) 3,355 8.0 5.9°
Reaches altitude 10° 06:15:27 10° 337° (NNW) 2,333 7.5 6.5°
Maximum altitude 06:17:09 11° 356° (N) 2,201 7.6 6.8°
Drops below altitude 10° 06:18:49 10° 15° (NNE) 2,262 8.0 7.0°
Sets 06:22:58 0° 49° (NE) 3,092 9.7 7.7°
